Tracking 19574 objects as of 16-Feb-2019
HD Live streaming from Space Station
objects crossing your sky now

OPS 9322 (IDSCS 9)

Track OPS 9322 (IDSCS 9) now!
OPS 9322 (IDSCS 9) is classified as:


NORAD ID: 2649
Int'l Code: 1967-003B
Perigee: 33,553.8 km
Apogee: 33,822.0 km
Inclination: 3.5 °
Period: 1,329.9 minutes
Semi major axis: 40058 km
RCS: 0.1995 m2 (medium)
Launch date: January 18, 1967
Source: United States (US)
Launch site: AIR FORCE EASTERN TEST RANGE (AFETR)
aabbcc
Your satellite tracking list
Your tracking list is empty




NASA's NSSDC Master Catalog

Two Line Element Set (TLE):
1  2649U 67003B   19046.58199229 -.00000076 +00000-0 +00000-0 0  9996
2  2649 003.5023 057.7569 0033482 046.4051 025.2098 01.08281464110434
Source of the keplerian elements: AFSPC